Home   Weather   Winchester   Past weeks

Flag for United Kingdom Past Weather in Winchester, England, United Kingdom — Yesterday and Last 2 Weeks

45 °F

Passing clouds.

Feels Like: 42 °F
Forecast: 40 / 55 °F
Wind: 5 mph from Northeast

Location: Middle Wallop

Current Time: Oct 23, 2016 at 12:37:56 AM

Latest Report: Oct 22, 2016 at 11:50 PM

Visibility: N/A

Pressure: 29.95 "Hg

Humidity: 93%

Dew Point: 43 °F

Location of WinchesterLocation

Past Weather in Winchester — Graph


Winchester Temperature Yesterday

Maximum temperature yesterday: 54 °F (at 3:50 PM)
Minimum temperature yesterday: 39 °F (at 3:50 AM)
Average temperature yesterday: 47 °F

High & Low Weather Summary for the Past Weeks

High61 °F (Oct 12, 1:50 PM)100% (Oct 11, 4:50 AM)30.36 "Hg (Oct 11, 4:50 AM)
Low39 °F (Oct 11, 3:50 AM)44% (Oct 10, 1:50 PM)29.62 "Hg (Oct 15, 12:50 AM)
Average51 °F81%30.07 "Hg
* Reported Oct 7 10:50 PM — Oct 22 10:50 PM, Winchester, Weather by CustomWeather, © 2016

Note: Actual official high and low records may vary slightly from our data, if they occured in-between our weather recording intervals... More about our weather records


Winchester Weather History for the Previous 24 Hours

Scroll right to see more
Time TempWeatherWind HumidityBarometerVisibility
10:50 PM
Sat, Oct 22
46 °FClear.7 mph87%29.95 "HgN/A
9:50 PM46 °FClear.7 mph87%29.95 "HgN/A
8:50 PM46 °FClear.8 mph87%29.95 "HgN/A
7:50 PM48 °FClear.8 mph87%29.95 "HgN/A
6:50 PM50 °FPassing clouds.6 mph82%29.95 "HgN/A
5:50 PM52 °FPassing clouds.6 mph77%29.95 "HgN/A
4:50 PM54 °FPassing clouds.7 mph67%29.95 "HgN/A
3:50 PM54 °FScattered clouds.9 mph67%29.98 "HgN/A
2:50 PM52 °FPartly sunny.8 mph72%29.98 "HgN/A
1:50 PM50 °FPartly sunny.10 mph76%30.01 "HgN/A
12:50 PM50 °FScattered clouds.10 mph82%30.01 "HgN/A
11:50 AM50 °FPartly sunny.8 mph82%30.04 "HgN/A
10:50 AM46 °FPartly sunny.7 mph93%30.04 "HgN/A
9:50 AM45 °FLow clouds.6 mph93%30.04 "Hg6 mi
8:50 AM45 °FLow clouds.6 mph93%30.04 "Hg5 mi
7:50 AM43 °FLow clouds.6 mph100%30.04 "Hg2 mi
6:50 AM43 °FPassing clouds.6 mph100%30.04 "Hg3 mi
5:50 AM43 °FPassing clouds.5 mph93%30.04 "Hg3 mi
4:50 AM39 °FClear.3 mph93%30.04 "Hg1 mi
3:50 AM39 °FClear.3 mph100%30.04 "Hg2 mi
2:50 AM43 °FClear.3 mph100%30.07 "Hg5 mi
1:50 AM43 °FClear.3 mph93%30.07 "Hg4 mi
12:50 AM46 °FPassing clouds.6 mph87%30.07 "HgN/A
Weather by CustomWeather, © 2016

See weather overviewHow to use our weather pages